Regional Weather Roundup
Issued by NWS Newport/Morehead, NC

Current Version | Previous Version | Graphics & Text | Print | Product List | Glossary Off
Versions: 1 2 3 4 5 6 7 8 9 10 11 12 13 14 15 16 17 18 19 20 21 22 23 24 25 26 27 28 29 30 31 32 33 34 35 36 37 38 39 40 41 42 43 44 45 46 47 48 49 50

000
ASUS42 KMHX 250124
RWRMHX
WEATHER ROUNDUP FOR EASTERN NORTH CAROLINA
NATIONAL WEATHER SERVICE NEWPORT/MOREHEAD CITY NC
900 PM EDT FRI APR 24 2015

NOTE: "FAIR" INDICATES FEW OR NO CLOUDS BELOW 12,000 FEET
WITH NO SIGNIFICANT WEATHER AND/OR OBSTRUCTIONS TO VISIBILITY

NCZ015>017-031-032-045>047-102-103-250200-
NORTH COAST

CITY           SKY/WX    TMP DP  RH WIND       PRES   REMARKS
EDENTON        PTCLDY    52  38  58 CALM      29.97R
ELIZABETH CITY PTCLDY    52  32  46 SW8       29.96R
KITTY HAWK     PTCLDY    48  39  73 SE6       29.97R
MANTEO         PTCLDY    48  40  73 SE3       29.98S

$$

NCZ045>047-081-094-103-104-250200-
CENTRAL COAST

CITY           SKY/WX    TMP DP  RH WIND       PRES   REMARKS
FRISCO         PTCLDY    48  41  76 CALM      29.97R
SWANQUARTER      N/A     57 N/A N/A NW3       29.94S

$$

NCZ095-097-098-100-101-250200-
SOUTHERN COAST

CITY           SKY/WX    TMP DP  RH WIND       PRES   REMARKS
BEAUFORT       MOCLDY    60  45  57 W9        29.99R
CEDAR ISLAND     N/A     61 N/A N/A W6G12     30.00S
JACKSONVILLE   MOCLDY    56  43  61 SW5       29.98R
PINEY ISLAND   PTCLDY   N/A N/A N/A NW7       29.97R
WILMINGTON     PTCLDY    60  41  49 SW10      30.00R


$$

NCZ011>013-027>030-043-044-078>080-089-090>093-098-250200-
COASTAL PLAIN

CITY           SKY/WX    TMP DP  RH WIND       PRES   REMARKS
AHOSKIE        CLEAR     47  40  75 CALM      29.96S
CLINTON        CLOUDY    56  46  68 CALM      29.99R
ELIZABETHTOWN  PTCLDY    57  43  58 CALM      30.00R
GOLDSBORO      MOCLDY    57  37  46 CALM      29.96R
GREENVILLE     PTCLDY    52  41  66 CALM      29.99R
HAVELOCK       MOCLDY    55  36  48 CALM      29.99R
KENANSVILLE    MOCLDY    51  40  65 CALM      30.00R
KINSTON        PTCLDY    52  43  71 CALM      29.99R
NEW BERN       MOCLDY    52  38  58 CALM      29.99R
RICHLANDS      MOCLDY    52  39  62 CALM      30.00R
ROCKY MOUNT    CLEAR     51  43  74 CALM      29.97R
WASHINGTON     PTCLDY    52  37  55 CALM      29.98R
WHITEVILLE     CLEAR     57  42  57 S7        30.00R

$$

AMZ130-135-150-152-154-156-158-170-250-252-270-ANZ085-086-088-633-658-670-250200-
MARINE OBSERVATIONS

STATION/POSITION TIME  TEMP    WIND        PRES    WAVE   SWELL
                       AIR SEA DIR/SP/G            HT/PER HT/PER
                 (UTC) (F)     (DEG/KT/KT) (MB)    (FT/S) (FT/S)
CHESAPEAKE LIGHT 0100   51     160/ 11/ 12 1015.1
64 E VA BEACH    0050   54 63   10/  6/  8 1014.3    4/ 6   3/ 6
DUCK             0100   51 55  140/ 13/ 14 1013.9
2 E DUCK         0011      54                N/A     3/ 6   2/14
10 NE DUCK       NOT AVBL
OREGON INLET     0100   49 57  120/  4/  6 1015.3
HATTERAS CG      0100   58 66  170/  3/  4 1014.5
DIAMOND BUOY     0050   59 73  200/  4/  6 1015.2    6/ 9   5/ 9
CAPE LOOKOUT     0100   61     250/ 10/ 12 1015.1
BEAUFORT LAB     0100   61 66  250/  6/  9 1014.5
27 SE WRIGHTSVLE 0100   61 70  240/ 14/ 17   N/A
5 SE WRIGHTSVLE  NOT AVBL
225 S CAPE HAT   0050   63 71   10/ 10/ 14 1016.6    7/ 8   7/ 8
41 SE CHARLESTON 0050   65 71  180/  6/ 10 1016.8    3/ 8   3/ 8

$$



USA.gov is the U.S. government's official web portal to all federal, state and local government web resources and services.